Regional Weather Roundup
Issued by NWS Wilmington, NC

Home | Current Version | Previous Version | Text Only | Print | Product List | Glossary On
Versions: 1 2 3 4 5 6 7 8 9 10 11 12 13 14 15 16 17 18 19 20 21 22 23 24 25 26 27
000
ASUS42 KILM 110613
RWRILM
RWRILM
REGIONAL HOURLY WEATHER ROUNDUP
NATIONAL WEATHER SERVICE WILMINGTON NC
100 AM EST MON DEC 11 2017

NOTE: "FAIR" INDICATES FEW OR NO CLOUDS BELOW 12,000 FEET WITH NO
SIGNIFICANT WEATHER AND/OR OBSTRUCTIONS TO VISIBILITY.

...............WFO WILMINGTON COUNTY WARNING AREA...............

......COASTAL NC AND SC COUNTIES......

CITY           SKY/WX    TMP DP  RH WIND       PRES   REMARKS
WILMINGTON     CLEAR     37  29  72 SW8       30.20F WCI  31
N MYRTLE BEACH CLEAR     40  30  67 SW8       30.20F WCI  34
MYRTLE BEACH   CLEAR     37  30  75 SW7       30.22F WCI  32

......INLAND NC AND SC COUNTIES.......

CITY           SKY/WX    TMP DP  RH WIND       PRES   REMARKS
LUMBERTON      CLEAR     34  28  79 SW6       30.18S WCI  29
ELIZABETHTOWN  NOT AVBL
WHITEVILLE     CLEAR     35  28  78 SW3       30.19S
FLORENCE       CLEAR     33  28  81 SW6       30.20R WCI  28
DARLINGTON     CLEAR     32  28  85 S3        30.19S
KINGSTREE      FAIR      30  30 100 CALM      30.21F
HARTSVILLE     FAIR      32  27  80 SW6       30.17S WCI  26
BENNETTSVILLE  FAIR      34  32  93 S5        30.18S WCI  30
CONWAY         FAIR      32  32 100 CALM      30.21F
GEORGETOWN     FAIR      32  32 100 SW3       30.23F
MARION         FAIR      34  30  86 SW3       30.20S

....................REST OF NORTH CAROLINA......................

.........EASTERN NC.........

CITY           SKY/WX    TMP DP  RH WIND       PRES   REMARKS
CAPE HATTERAS  CLEAR     42  29  59 W9        30.18F
JACKSONVILLE   CLEAR     28  26  92 SW5       30.19S WCI  23
MOREHEAD CITY  CLEAR     43  30  60 W8        30.17F
KENANSVILLE    CLEAR     28  27  93 CALM      30.18S
NEW BERN       CLEAR     31  28  89 SW3       30.18F
ELIZABETH CITY CLEAR     33  31  92 SW6       30.14F WCI  28

.........CENTRAL NC.........

CITY           SKY/WX    TMP DP  RH WIND       PRES   REMARKS
RALEIGH DURHAM CLEAR     28  24  85 W5        30.14F WCI  23
ROCKY MOUNT    CLEAR     31  27  85 S3        30.16R
ROANOKE RAPIDS NOT AVBL
FAYETTEVILLE   CLEAR     33  27  78 S6        30.16S WCI  28
HOFFMAN        CLEAR     26  24  91 CALM      30.16S

.........WESTERN NC.........

CITY           SKY/WX    TMP DP  RH WIND       PRES   REMARKS
CHARLOTTE      CLEAR     32  24  72 SW6       30.15S WCI  26
GREENSBORO     CLEAR     30  23  75 SW3       30.10F
HICKORY        NOT AVBL
BOONE          NOT AVBL
ASHEVILLE      NOT AVBL

.....................REST OF SOUTH CAROLINA.....................

.........EASTERN SC.........

CITY           SKY/WX    TMP DP  RH WIND       PRES   REMARKS
CHARLESTON     CLEAR     36  31  82 SW7       30.24F WCI  30
BEAUFORT MCAS  CLEAR     39  30  70 W7        30.25F WCI  34
HILTON HEAD    CLEAR     37  32  81 CALM      30.27F

.........CENTRAL SC.........

CITY           SKY/WX    TMP DP  RH WIND       PRES   REMARKS
COLUMBIA       CLEAR     32  29  88 W3        30.19F
ORANGEBURG     CLEAR     31  27  85 SW7       30.22S WCI  24
SUMTER SHAW    CLEAR     35  26  71 SW8       30.18R WCI  28

.........WESTERN SC.........

CITY           SKY/WX    TMP DP  RH WIND       PRES   REMARKS
GREENVILLE     NOT AVBL
ROCK HILL      CLEAR     31  23  72 CALM      30.15S
ANDERSON       CLEAR     36  25  64 SW9       30.17S WCI  29
CLEMSON        NOT AVBL
GREENWOOD      CLEAR     36  25  64 W14       30.19S WCI  27


...................COASTAL AND OFFSHORE REPORTS..................

................LOCAL PIERS AND NC RESERVE................


STATION/POSITION TIME  SKY/WX   TEMP    WIND        PRES    VSBY
                                AIR SEA DIR/SP/G
                 (UTC)          (F)     (DEG/KT/KT) (MB)    (MI)
JOHNY MRCER PIER 0548            41 57  240/  8/ 11 1022.4F
NC RESRV MASNBRO 0445            36     280/  1     1022.0
OCEAN CREST PIER NOT AVBL
SPRINGMAID  PIER 0548                               1026.1F


................COASTAL AND OFFSHORE BUOYS................


STATION/POSITION TIME  SKY/WX   TEMP    WIND        PRES    VSBY
                                AIR SEA DIR/SP/G
                 (UTC)          (F)     (DEG/KT/KT) (MB)    (MI)
DIMNDSHOAL 41025 0600            50 74  260/ 17/ 23 1021.8
CAPE LOOKOUT     0600                   260/ 12/ 14 1021.9F
ONSLOW BAY 41036 NOT AVBL
ONSLOW BAY 41064 0508            51 68  280/ 14/ 19 1022.8F
ONSLOW BAY 41159 0600               68                N/A
WVE H/P(F/S)=  4/ 7

MASNBO INL 41110 0559               58                N/A
WVE H/P(F/S)=  2/ 3

WILM HARBR 41108 0600               56                N/A
WVE H/P(F/S)=  3/ 4

27SE WRITB 41037 NOT AVBL
FRYING PAN 41013 0550            52 63  270/ 14/ 19 1022.4F
WVE H/P(F/S)=  3/ 4 SWL H/P/D(F/S/D)=  2/ 90/10

SUNST NRSH 41024 0508            47     260/ 14/ 17 1022.6F
CAPRS NRSH 41029 0508            45     270/ 17/ 23 1023.6F
EDISTO     41004 0600               74  280/ 16/ 21 1023.2


..........OFFSHORE BUOYS BEYOND 100 NM OFFSHORE...........
.....IN A TRIANGLE---HAT TO BERMUDA TO BAHAMAS TO HAT.....


STATION/POSITION TIME  SKY/WX   TEMP    WIND        PRES    VSBY
                                AIR SEA DIR/SP/G
                 (UTC)          (F)     (DEG/KT/KT) (MB)    (MI)
150E HAT   41001 NOT AVBL
W BERMUDA  41048 0550            65 75  300/ 10/ 16 1020.0F
WVE H/P(F/S)= 10/ 9 SWL H/P/D(F/S/D)= 10/290/ 9

ATLANTIC S 41049 0550            75 78  130/  6/  8 1018.2F
WVE H/P(F/S)=  4/ 8 SWL H/P/D(F/S/D)=  3/140/ 8

E BAHAMAS  41046 0550            78 80  130/  6/  8 1016.3F
WVE H/P(F/S)=  5/ 8 SWL H/P/D(F/S/D)=  5/120/ 8

NE BAHAMAS 41047 0550            67      20/ 16/ 19 1018.8F
WVE H/P(F/S)=  9/ 9 SWL H/P/D(F/S/D)=  7/310/ 9

120E CANVRL41010 NOT AVBL

END




USA.gov is the U.S. government's official web portal to all federal, state and local government web resources and services.